Weather History for KPHN - January, 2013

Change the Weather History Date:

Monday, January 14, 2013

  Actual Average (KMTC) Record (KMTC)
Temperature  
Mean Temperature 26 °F -  
Max Temperature 33 °F 29 °F 60 °F (1950)
Min Temperature 19 °F 17 °F -8 °F (2009)
Degree Days  
Heating Degree Days 39    
Moisture  
Dew Point 19 °F    
Average Humidity 74    
Maximum Humidity 93    
Minimum Humidity 59    
Precipitation  
Precipitation 0.00 in - - ()
Sea Level Pressure  
Sea Level Pressure 30.29 in    
Wind  
Wind Speed 8 mph (WNW)    
Max Wind Speed 16 mph    
Max Gust Speed 25 mph    
Visibility 10 miles    
Events      
Averages and records for this station are not official NWS values.
T = Trace of Precipitation, MM = Missing Value Source: NWS Daily Summary

Daily Weather History Graph

Daily Weather History Graph

Search for Another Location

Airport or City:

Trip Planner

Search our weather history database for the weather conditions in past years. The results will help you decide how hot, cold, wet, or windy it might be!

Date:

Astronomy

Jan. 14, 2013 Rise Set
Actual Time 7:58 AM EST 5:20 PM EST
Civil Twilight 7:27 AM EST 5:51 PM EST
Nautical Twilight 6:52 AM EST 6:26 PM EST
Astronomical Twilight 6:18 AM EST 7:00 PM EST
Moon 9:25 AM EST (1/14) 9:11 PM EST (1/14)
Length of Visible Light 10h 24m
Length of Day
9h 21m
Waxing Crescent, 11% of the Moon is Illuminated
Jan 14
Waxing Crescent
Jan 18
First Quarter
Jan 26
Full
Feb 3
Last Quarter
Feb 10
New

Hourly Weather History & Observations

Time (EST) Temp. Windchill Dew Point Humidity Pressure Visibility Wind Dir Wind Speed Gust Speed Precip Events Conditions
12:18 AM 33.8 °F 26.4 °F 32.0 °F 93% 29.98 in 10.0 mi West 9.2 mph - N/A   Overcast
12:37 AM 33.8 °F 25.8 °F 30.2 °F 87% 29.99 in 10.0 mi West 10.4 mph 20.7 mph N/A   Overcast
12:58 AM 32.0 °F 22.5 °F 28.4 °F 87% 30.01 in 10.0 mi WNW 12.7 mph 19.6 mph N/A   Overcast
1:18 AM 32.0 °F 24.8 °F 28.4 °F 87% 30.02 in 10.0 mi West 8.1 mph - N/A   Overcast
1:37 AM 32.0 °F 23.6 °F 26.6 °F 80% 30.03 in 10.0 mi West 10.4 mph 17.3 mph N/A   Overcast
1:58 AM 30.2 °F 21.9 °F 24.8 °F 80% 30.04 in 10.0 mi West 9.2 mph 19.6 mph N/A   Overcast
2:18 AM 30.2 °F 21.3 °F 24.8 °F 80% 30.06 in 10.0 mi West 10.4 mph 21.9 mph N/A   Overcast
2:37 AM 30.2 °F 20.8 °F 23.0 °F 75% 30.08 in 10.0 mi West 11.5 mph 21.9 mph N/A   Overcast
2:58 AM 30.2 °F 21.9 °F 23.0 °F 75% 30.09 in 10.0 mi West 9.2 mph 20.7 mph N/A   Overcast
3:18 AM 28.4 °F 18.5 °F 21.2 °F 74% 30.11 in 10.0 mi West 11.5 mph 23.0 mph N/A   Overcast
3:37 AM 28.4 °F 18.5 °F 21.2 °F 74% 30.13 in 10.0 mi West 11.5 mph 17.3 mph N/A   Overcast
3:58 AM 28.4 °F 16.6 °F 21.2 °F 74% 30.14 in 10.0 mi WNW 16.1 mph 21.9 mph N/A   Overcast
4:17 AM 28.4 °F 18.0 °F 21.2 °F 74% 30.15 in 10.0 mi WNW 12.7 mph 19.6 mph N/A   Overcast
4:38 AM 28.4 °F 17.5 °F 21.2 °F 74% 30.16 in 10.0 mi West 13.8 mph 24.2 mph N/A   Overcast
5:18 AM 26.6 °F 16.2 °F 21.2 °F 80% 30.17 in 10.0 mi WNW 11.5 mph 18.4 mph N/A   Overcast
5:38 AM 26.6 °F 16.8 °F 21.2 °F 80% 30.19 in 10.0 mi West 10.4 mph 20.7 mph N/A   Overcast
5:57 AM 26.6 °F 17.5 °F 21.2 °F 80% 30.20 in 10.0 mi West 9.2 mph 16.1 mph N/A   Overcast
6:18 AM 26.6 °F 15.7 °F 21.2 °F 80% 30.21 in 10.0 mi WNW 12.7 mph 16.1 mph N/A   Overcast
6:37 AM 26.6 °F 14.7 °F 21.2 °F 80% 30.22 in 10.0 mi WNW 15.0 mph 18.4 mph N/A   Overcast
6:57 AM 26.6 °F 15.2 °F 21.2 °F 80% 30.24 in 10.0 mi West 13.8 mph 19.6 mph N/A   Overcast
7:18 AM 26.6 °F 15.7 °F 19.4 °F 74% 30.26 in 10.0 mi West 12.7 mph 23.0 mph N/A   Overcast
7:37 AM 24.8 °F 12.9 °F 19.4 °F 80% 30.27 in 10.0 mi WNW 13.8 mph 21.9 mph N/A   Overcast
7:58 AM 24.8 °F 14.0 °F 17.6 °F 74% 30.28 in 10.0 mi WNW 11.5 mph 25.3 mph N/A   Overcast
8:18 AM 24.8 °F 12.4 °F 17.6 °F 74% 30.29 in 10.0 mi WNW 15.0 mph 20.7 mph N/A   Overcast
8:38 AM 24.8 °F 14.0 °F 17.6 °F 74% 30.31 in 10.0 mi WNW 11.5 mph 17.3 mph N/A   Overcast
8:58 AM 24.8 °F 16.1 °F 17.6 °F 74% 30.32 in 10.0 mi West 8.1 mph - N/A   Overcast
9:17 AM 24.8 °F 15.3 °F 17.6 °F 74% 30.33 in 10.0 mi NW 9.2 mph 16.1 mph N/A   Overcast
9:38 AM 24.8 °F 16.1 °F 17.6 °F 74% 30.34 in 10.0 mi WNW 8.1 mph - N/A   Overcast
9:57 AM 24.8 °F 14.6 °F 17.6 °F 74% 30.35 in 10.0 mi WNW 10.4 mph 18.4 mph N/A   Overcast
10:18 AM 24.8 °F 16.1 °F 17.6 °F 74% 30.36 in 10.0 mi NW 8.1 mph - N/A   Overcast
10:38 AM 24.8 °F 19.1 °F 17.6 °F 74% 30.36 in 10.0 mi West 4.6 mph - N/A   Overcast
10:57 AM 24.8 °F 16.1 °F 17.6 °F 74% 30.36 in 10.0 mi NW 8.1 mph - N/A   Overcast
11:17 AM 24.8 °F 15.3 °F 17.6 °F 74% 30.37 in 10.0 mi West 9.2 mph - N/A   Overcast
11:38 AM 24.8 °F 17.9 °F 17.6 °F 74% 30.36 in 10.0 mi West 5.8 mph - N/A   Overcast
11:58 AM 24.8 °F 16.9 °F 17.6 °F 74% 30.36 in 10.0 mi West 6.9 mph - N/A   Overcast
12:17 PM 26.6 °F 21.2 °F 15.8 °F 64% 30.35 in 10.0 mi West 4.6 mph - N/A   Overcast
12:38 PM 26.6 °F 18.2 °F 17.6 °F 69% 30.34 in 10.0 mi WNW 8.1 mph - N/A   Overcast
12:57 PM 26.6 °F 20.0 °F 15.8 °F 64% 30.32 in 10.0 mi WNW 5.8 mph - N/A   Mostly Cloudy
1:18 PM 28.4 °F 22.2 °F 15.8 °F 59% 30.33 in 10.0 mi West 5.8 mph - N/A   Mostly Cloudy
1:38 PM 26.6 °F 21.2 °F 15.8 °F 64% 30.32 in 10.0 mi West 4.6 mph - N/A   Mostly Cloudy
1:58 PM 28.4 °F 23.3 °F 15.8 °F 59% 30.32 in 10.0 mi West 4.6 mph - N/A   Overcast
2:18 PM 26.6 °F 21.2 °F 15.8 °F 64% 30.34 in 10.0 mi NNW 4.6 mph - N/A   Mostly Cloudy
2:37 PM 28.4 °F 22.2 °F 15.8 °F 59% 30.35 in 10.0 mi WNW 5.8 mph - N/A   Mostly Cloudy
2:58 PM 26.6 °F 22.6 °F 15.8 °F 64% 30.36 in 10.0 mi West 3.5 mph - N/A   Scattered Clouds
3:18 PM 26.6 °F 20.0 °F 15.8 °F 64% 30.36 in 10.0 mi WNW 5.8 mph - N/A   Clear
3:38 PM 26.6 °F 22.6 °F 15.8 °F 64% 30.37 in 10.0 mi West 3.5 mph - N/A   Scattered Clouds
3:58 PM 26.6 °F 22.6 °F 15.8 °F 64% 30.38 in 10.0 mi SW 3.5 mph - N/A   Mostly Cloudy
4:38 PM 26.6 °F 22.6 °F 15.8 °F 64% 30.40 in 10.0 mi West 3.5 mph - N/A   Clear
4:57 PM 26.6 °F 22.6 °F 15.8 °F 64% 30.40 in 10.0 mi WNW 3.5 mph - N/A   Clear
5:18 PM 26.6 °F - 15.8 °F 64% 30.41 in 10.0 mi Calm Calm - N/A   Clear
5:38 PM 26.6 °F 21.2 °F 17.6 °F 69% 30.42 in 10.0 mi West 4.6 mph - N/A   Clear
5:57 PM 26.6 °F 22.6 °F 17.6 °F 69% 30.41 in 10.0 mi WNW 3.5 mph - N/A   Clear
6:18 PM 26.6 °F - 17.6 °F 69% 30.41 in 10.0 mi Calm Calm - N/A   Clear
6:38 PM 26.6 °F - 17.6 °F 69% 30.41 in 10.0 mi Calm Calm - N/A   Clear
6:57 PM 26.6 °F 22.6 °F 17.6 °F 69% 30.42 in 10.0 mi WNW 3.5 mph - N/A   Scattered Clouds
7:18 PM 26.6 °F 22.6 °F 17.6 °F 69% 30.40 in 10.0 mi WNW 3.5 mph - N/A   Scattered Clouds
7:37 PM 24.8 °F - 17.6 °F 74% 30.41 in 10.0 mi Calm Calm - N/A   Scattered Clouds
7:58 PM 24.8 °F - 17.6 °F 74% 30.40 in 10.0 mi Calm Calm - N/A   Scattered Clouds
8:18 PM 24.8 °F 20.5 °F 17.6 °F 74% 30.39 in 10.0 mi NW 3.5 mph - N/A   Clear
8:38 PM 23.0 °F 18.4 °F 17.6 °F 80% 30.38 in 10.0 mi WNW 3.5 mph - N/A   Clear
8:58 PM 23.0 °F 17.0 °F 17.6 °F 80% 30.38 in 10.0 mi WNW 4.6 mph - N/A   Clear
9:17 PM 23.0 °F - 17.6 °F 80% 30.38 in 10.0 mi Calm Calm - N/A   Clear
9:38 PM 23.0 °F - 15.8 °F 74% 30.39 in 10.0 mi Calm Calm - N/A   Clear
9:58 PM 23.0 °F - 17.6 °F 80% 30.38 in 10.0 mi Calm Calm - N/A   Clear
10:17 PM 23.0 °F - 17.6 °F 80% 30.38 in 10.0 mi Calm Calm - N/A   Clear
10:38 PM 21.2 °F - 17.6 °F 86% 30.38 in 10.0 mi Calm Calm - N/A   Clear
10:58 PM 21.2 °F - 17.6 °F 86% 30.37 in 10.0 mi Calm Calm - N/A   Clear
11:18 PM 21.2 °F - 17.6 °F 86% 30.36 in 10.0 mi Calm Calm - N/A   Clear
11:38 PM 19.4 °F - 17.6 °F 93% 30.37 in 10.0 mi Calm Calm - N/A   Clear
11:57 PM 19.4 °F - 17.6 °F 93% 30.37 in 10.0 mi Calm Calm - N/A   Clear